sat.trackr.live / text

‹ back to catalog

STARLINK-31980

NORAD 59962 · 2024-107T

PAYLOAD ACTIVE UNKNOWN

§ Identity

Operator
Country
US
Launch date
2024-06-05
Launch site
AFETR
Launch vehicle
Mass (kg)
RCS (m²)

Purposes: comms

External: N2YO · Heavens-Above · Gunter

§ Orbital elements

Epoch: 2026-05-25T02:21:54.371808Z

Period
94.11 min
Inclination
53.1608°
Eccentricity
0.0001104
Mean motion
15.30192793 rev/d
Perigee alt
474.5 km
Apogee alt
476.0 km
Semi-major
6,853.4 km
B*
1.3562e-5
RAAN
70.7118°
Arg perigee
99.5750°
Mean anomaly
260.5376°
Rev number
11,149

§ Raw data

STARLINK-319801 59962U 24107T   26145.09854597  .00000043  00000+0  13562-4 0  99972 59962  53.1608  70.7118 0001104  99.5750 260.5376 15.30192793111496

JSON: /api/v1/satellites/59962 · /tle

For live sub-satellite position, see the globe view (requires WebGL).

§ Visibility from observer

Set your observer location to see the next 7 days of passes ≥ 10°. The values pass through the URL so the page stays shareable.

No JS? Fill the form by hand. The geolocation button needs JavaScript.